This demonstration page uses our WeatherBlox Daily Observations layout. Learn more.

Left ArrowRight Arrow

Hourly Observations for May 23, 2018

Temp ( °F °C ) Dew Point ( °F °C ) Humidity (%) Winds ( mph kmh ) Pressure ( in mb ) Visibility ( mi km ) Precip ( " mm )
12:53 am 00:53 Clear 72 22.2 55 12.8 55 55 undefined N/A 29.79 1009 10 16 0.00 0.00
1:53 am 01:53 Clear 70 21.1 55 12.8 59 59 S 13 20 29.79 1009 10 16 0.00 0.00
2:53 am 02:53 Clear 68 20 55 12.8 63 63 S 6 9 29.79 1009 10 16 0.00 0.00
3:53 am 03:53 Clear 67 19.4 55 12.8 66 66 SSW 6 9 29.80 1009 10 16 0.00 0.00
4:53 am 04:53 Partly Cloudy 65 18.3 54 12.2 68 68 S 8 13 29.81 1009 10 16 0.00 0.00
5:53 am 05:53 Mostly Sunny 63 17.2 53 11.7 70 70 SSE 7 11 29.83 1010 10 16 0.00 0.00
6:53 am 06:53 Mostly Cloudy 62 16.7 54 12.2 75 75 SE 6 9 29.84 1011 10 16 0.00 0.00
7:53 am 07:53 Sunny 63 17.2 54 12.2 73 73 SSE 6 9 29.85 1011 10 16 0.00 0.00
8:53 am 08:53 Mostly Cloudy 65 18.3 54 12.2 68 68 S 6 9 29.86 1011 10 16 0.00 0.00
9:53 am 09:53 Mostly Cloudy 67 19.4 53 11.7 61 61 SE 3 6 29.86 1011 10 16 0.00 0.00
10:53 am 10:53 Partly Cloudy 71 21.7 55 12.8 57 57 SSW 5 7 29.85 1011 10 16 0.00 0.00
11:53 am 11:53 Partly Cloudy 74 23.3 55 12.8 52 52 S 7 11 29.85 1011 10 16 0.00 0.00
12:53 pm 12:53 Mostly Sunny 76 24.4 56 13.3 50 50 NNW 3 6 29.83 1010 10 16 0.00 0.00
1:53 pm 13:53 Sunny 78 25.6 56 13.3 47 47 VRB 7 11 29.82 1010 10 16 0.00 0.00
2:53 pm 14:53 Mostly Sunny 80 26.7 55 12.8 42 42 SSE 7 11 29.80 1009 10 16 0.00 0.00
3:53 pm 15:53 Sunny 82 27.8 56 13.3 41 41 SSE 13 20 29.80 1009 10 16 0.00 0.00
4:53 pm 16:53 Sunny 82 27.8 56 13.3 41 41 SSE 14 22 29.79 1009 10 16 0.00 0.00
5:53 pm 17:53 Sunny 81 27.2 56 13.3 42 42 SSE 14 22 29.80 1009 10 16 0.00 0.00
6:53 pm 18:53 Sunny 79 26.1 56 13.3 45 45 S 15 24 29.81 1009 10 16 0.00 0.00
7:53 pm 19:53 Cloudy 76 24.4 54 12.2 47 47 S 9 15 29.83 1010 10 16 0.00 0.00
8:53 pm 20:53 Mostly Clear 73 22.8 56 13.3 55 55 S 8 13 29.85 1011 10 16 0.00 0.00
9:53 pm 21:53 Partly Cloudy 70 21.1 57 13.9 64 64 undefined N/A 29.88 1012 10 16 0.00 0.00
10:53 pm 22:53 Mostly Clear 69 20.6 54 12.2 59 59 undefined N/A 29.90 1013 10 16 0.00 0.00
11:53 pm 23:53 Mostly Cloudy 69 20.6 52 11.1 55 55 SSE 8 13 29.92 1013 10 16 0.00 0.00

Powered by AerisWeather